Overview Statistics Trail Chart Weather Telemetry Raw packets
 

This is the latest recevied weather packets stored in our database for station/object PP5CFL-13. If no packets are shown the sender has not sent any weather packets the latest 10 day(s).

<< 31 32 33 34 35 36 37 >>
Time Temp. Humidity Pressure Rain* Wind** Luminosity Snow
1788452560 23.33° C 70% 1016.9 hPa - - - -
1788452260 23.33° C 71% 1017 hPa - - - -
1788451960 22.78° C 73% 1017.1 hPa - - - -
1788451660 22.78° C 72% 1017.2 hPa - - - -
1788451360 22.78° C 72% 1017.4 hPa - - - -
1788451060 22.78° C 73% 1017.6 hPa - - - -
1788450760 23.33° C 71% 1017.7 hPa - - - -
1788450460 23.33° C 71% 1017.7 hPa - - - -
1788450160 22.78° C 72% 1017.9 hPa - - - -
1788449860 22.22° C 74% 1018 hPa - - - -
1788449560 21.11° C 78% 1018.3 hPa - - - -
1788449260 21.11° C 78% 1018.4 hPa - - - -
1788448960 21.11° C 80% 1018.5 hPa - - - -
1788448672 21.11° C 80% 1018.6 hPa - - - -
1788448360 21.11° C 79% 1018.8 hPa - - - -
1788448060 21.11° C 76% 1018.9 hPa - - - -
1788447760 21.11° C 76% 1019 hPa - - - -
1788447459 21.11° C 76% 1019.1 hPa - - - -
1788447160 21.11° C 75% 1019.2 hPa - - - -
1788446860 21.11° C 75% 1019.3 hPa - - - -
1788446560 21.11° C 75% 1019.4 hPa - - - -
1788446260 21.11° C 74% 1019.4 hPa - - - -
1788445960 21.11° C 74% 1019.5 hPa - - - -
1788445660 21.11° C 75% 1019.6 hPa - - - -
1788445359 21.11° C 74% 1019.7 hPa - - - -

* Rain since midnight (hover to see other rain measurements)
** Current wind speed in m/s (hover to see current wind gust speed)